EW5043 Weather Reports


Display with metric or nautical units.
time (UTC)temp
F
wind
direction
speed
MPH
gust
MPH
rain 1hr
in
rain 24hr
in
rain mn
in
humidity
%
barometer
mb
20260831093018 66 182 4.0 0.0 0.00 0.00 0.00 100 1017.1
20260831091612 66 175 6.0 0.0 0.00 0.00 0.00 100 1017.0
20260831090200 66 175 5.0 0.0 0.00 0.00 0.00 100 1017.0
20260831084650 65 187 3.0 0.0 0.00 0.00 0.00 100 1017.1
20260831083044 65 190 3.0 0.0 0.00 0.00 0.00 100 1017.1
20260831081634 65 190 2.0 0.0 0.00 0.00 0.00 100 1017.2
20260831080024 65 190 2.0 0.0 0.00 0.00 0.00 100 1017.2
20260831074615 65 190 2.0 0.0 0.00 0.00 0.00 100 1017.1
20260831073012 65 190 3.0 0.0 0.00 0.00 0.00 100 1017.1
20260831071657 65 198 2.0 0.0 0.00 0.00 0.00 100 1017.2
20260831070048 65 203 1.0 0.0 0.00 0.00 0.00 100 1017.2
20260831064538 65 203 1.0 0.0 0.00 0.00 0.00 100 1017.3
20260831063029 66 203 1.0 0.0 0.00 0.00 0.00 100 1017.3
20260831061620 66 203 1.0 0.0 0.00 0.00 0.00 100 1017.4
20260831060010 65 203 1.0 0.0 0.00 0.00 0.00 100 1017.5
20260831054602 65 203 2.0 0.0 0.00 0.00 0.00 100 1017.6
20260831053055 66 203 1.0 0.0 0.00 0.00 0.00 100 1017.7
20260831051551 66 203 2.0 0.0 0.00 0.00 0.00 100 1018.0
20260831050035 66 203 1.0 0.0 0.00 0.00 0.00 100 1017.9
20260831044527 66 203 1.0 0.0 0.00 0.00 0.00 100 1018.0
20260831043017 67 203 1.0 0.0 0.00 0.00 0.00 100 1018.1
20260831041646 67 203 1.0 0.0 0.00 0.00 0.00 100 1017.8
20260831040059 67 203 1.0 0.0 0.00 0.00 0.00 100 1017.9
20260831034651 67 203 1.0 0.0 0.00 0.00 0.08 100 1017.6
20260831033042 67 202 1.0 0.0 0.00 0.00 0.08 100 1017.8
20260831031530 67 270 1.0 0.0 0.00 0.00 0.08 100 1017.5
20260831030021 67 270 1.0 0.0 0.00 0.00 0.08 100 1017.6
20260831024513 67 270 1.0 0.0 0.00 0.00 0.08 100 1017.7
20260831023106 67 270 1.0 0.0 0.00 0.00 0.08 100 1017.8
20260831021555 68 270 0.0 0.0 0.00 0.00 0.08 100 1017.8
20260831020047 68 270 1.0 0.0 0.00 0.00 0.08 100 1017.7
20260831014639 69 270 1.0 0.0 0.00 0.00 0.08 100 1017.6
20260831013131 69 270 1.0 0.0 0.00 0.00 0.08 100 1017.4
20260831011538 70 293 1.0 0.0 0.00 0.00 0.08 100 1017.4
20260831010011 70 293 2.0 0.0 0.00 0.00 0.08 100 1017.4
20260831004503 70 293 2.0 0.0 0.00 0.00 0.08 100 1017.3
20260831003054 70 293 2.0 0.0 0.00 0.00 0.08 100 1017.2
20260831000048 70 293 3.0 0.0 0.00 0.00 0.08 100 1016.9
20260830234526 69 264 1.0 0.0 0.00 0.00 0.08 100 1016.6
20260830233120 69 264 0.0 0.0 0.00 0.00 0.08 100 1016.6
20260830231607 69 264 0.0 0.0 0.00 0.00 0.08 100 1016.5
20260830224550 69 264 0.0 0.0 0.00 0.00 0.08 100 1016.5
20260830223103 69 264 1.0 0.0 0.00 0.00 0.08 100 1016.6
20260830221633 69 264 0.0 0.0 0.00 0.00 0.08 100 1016.6
20260830220022 69 265 1.0 0.0 0.00 0.00 0.08 100 1016.5
20260830214515 69 169 1.0 0.0 0.00 0.00 0.08 100 1016.3
20260830211557 69 228 1.0 0.0 0.00 0.00 0.08 100 1016.4
20260830210046 68 230 1.0 0.0 0.00 0.00 0.08 100 1016.5
20260830204538 68 241 1.0 0.0 0.00 0.00 0.08 100 1016.6
20260830203034 68 169 1.0 0.0 0.00 0.00 0.08 100 1016.6
20260830201519 67 163 1.0 0.0 0.00 0.00 0.08 100 1016.7
20260830200010 67 163 2.0 0.0 0.00 0.00 0.08 100 1016.7
20260830194502 67 199 1.0 0.0 0.00 0.00 0.08 100 1016.7
20260830193102 67 195 1.0 0.0 0.00 0.00 0.07 100 1016.7
20260830191643 67 194 1.0 0.0 0.00 0.00 0.07 100 1016.9
20260830190135 67 194 2.0 0.0 0.00 0.00 0.07 100 1017.1
20260830184529 67 207 2.0 0.0 0.00 0.00 0.06 100 1017.4
20260830183016 67 207 1.0 0.0 0.00 0.00 0.06 100 1017.4
20260830181506 67 294 1.0 0.0 0.00 0.00 0.05 100 1017.5
20260830180201 67 294 0.0 0.0 0.00 0.00 0.05 100 1017.5
20260830174651 67 294 1.0 0.0 0.00 0.00 0.05 100 1017.6
20260830173040 68 286 2.0 0.0 0.00 0.00 0.04 100 1017.6
20260830171535 69 271 1.0 0.0 0.00 0.00 0.03 100 1017.5
20260830170123 70 250 2.0 0.0 0.00 0.00 0.01 100 1017.5
20260830164513 71 239 2.0 0.0 0.00 0.00 0.00 100 1017.4
20260830163004 72 239 1.0 0.0 0.00 0.00 0.00 100 1017.3
20260830161555 72 238 0.0 0.0 0.00 0.00 0.00 100 1017.3
20260830160044 72 238 1.0 0.0 0.00 0.00 0.00 100 1017.3
20260830154638 72 188 1.0 0.0 0.00 0.00 0.00 100 1017.4
20260830153027 72 187 0.0 0.0 0.00 0.00 0.00 100 1017.2
20260830151517 72 188 1.0 0.0 0.00 0.00 0.00 100 1017.1
20260830150008 72 187 1.0 0.0 0.00 0.00 0.00 100 1017.1
20260830144559 72 187 1.0 0.0 0.00 0.00 0.00 100 1017.0
20260830143050 71 172 1.0 0.0 0.00 0.00 0.00 100 1017.0
20260830141543 71 172 1.0 0.0 0.00 0.00 0.00 100 1017.1
20260830140032 71 203 3.0 0.0 0.00 0.00 0.00 100 1016.9
20260830134534 71 178 2.0 0.0 0.00 0.00 0.00 100 1016.9
20260830133114 70 182 2.0 0.0 0.00 0.00 0.00 100 1017.0
20260830131606 70 182 3.0 0.0 0.00 0.00 0.00 100 1017.0
20260830130107 70 186 2.0 0.0 0.00 0.00 0.00 100 1016.8
20260830124546 70 202 2.0 0.0 0.00 0.00 0.00 100 1016.9
20260830123039 70 175 4.0 0.0 0.00 0.00 0.00 100 1017.0
20260830121530 70 182 2.0 0.0 0.00 0.00 0.00 100 1016.9
20260830120019 70 213 4.0 0.0 0.00 0.00 0.00 100 1017.0
20260830114614 70 220 3.0 0.0 0.00 0.00 0.00 100 1017.0
20260830113002 70 182 4.0 0.0 0.00 0.00 0.00 100 1016.8
20260830111553 70 185 2.0 0.0 0.00 0.00 0.00 100 1017.0
20260830110056 70 213 3.0 0.0 0.00 0.00 0.00 100 1016.9
20260830104535 70 180 3.0 0.0 0.00 0.00 0.00 100 1016.9
20260830103127 69 205 2.0 0.0 0.00 0.00 0.00 100 1017.0
20260830101517 70 220 3.0 0.0 0.00 0.00 0.00 100 1017.3
20260830100008 70 210 4.0 0.0 0.00 0.00 0.00 100 1017.1
20260830094600 70 171 4.0 0.0 0.00 0.00 0.00 100 1017.2